This demonstration page uses our WeatherBlox Daily Observations layout. Learn more.

Left ArrowRight Arrow

39.92423, -83.80882

Hourly Observations for December 4, 2015

Temp ( °F °C ) Dew Point ( °F °C ) Humidity (%) Winds ( mph kmh ) Pressure ( in mb ) Visibility ( mi km ) Precip ( " mm )
12:56 am 00:56 Clear 28 -2.2 27 -2.7 96 96 SW 5 7 30.48 1032 9 14.48406 0 0
1:56 am 01:56 Clear 28 -2.2 27 -2.7 96 96 SW 6 9 30.48 1032 7 11.26538 0 0
2:56 am 02:56 Clear with Mist and Fog 26 -3.3 26 -3.3 100 100 SW 6 9 30.48 1032 5 8.0467 0 0
3:56 am 03:56 Clear with Mist and Fog 27 -2.7 27 -2.7 100 100 SSW 6 9 30.5 1033 6 9.65604 0 0
4:56 am 04:56 Clear with Mist and Fog 27 -2.7 26 -3.3 96 96 SSW 7 11 30.5 1033 4 6.43736 0 0
5:56 am 05:56 Clear with Mist and Fog 26 -3.3 25 -3.8 96 96 WSW 6 9 30.52 1033 5 8.0467 0 0
6:56 am 06:56 Mostly Clear with Mist and Fog 25 -3.8 25 -3.8 100 100 W 6 9 30.55 1035 4 6.43736 0 0
7:08 am 07:08 Mostly Cloudy with Mist and Fog 27 -3 25 -4 93 93 W 5 7 30.59 1036 3 4.82802 0 0
7:27 am 07:27 Cloudy with Mist and Fog 28 -2 28 -2 100 100 W 10 17 30.59 1036 2.5 4.02335 0 0
7:40 am 07:40 Cloudy with Mist and Fog 28 -2 28 -2 100 100 W 9 15 30.59 1036 1.75 2.816345 0 0
7:56 am 07:56 Cloudy with Mist and Fog 28 -2.2 28 -2.2 100 100 W 8 13 30.57 1035 1 1.60934 0 0
8:03 am 08:03 Cloudy with Mist and Fog 28 -2 28 -2 100 100 WSW 8 13 30.59 1036 0.75 1.207005 0 0
8:11 am 08:11 Cloudy with Freezing Fog 28 -2 28 -2 100 100 WSW 8 13 30.59 1036 0.5 0.80467 0 0
8:23 am 08:23 Cloudy with Mist and Fog 28 -2 28 -2 100 100 WSW 8 13 30.59 1036 0.75 1.207005 0 0
8:30 am 08:30 Cloudy with Freezing Fog 28 -2 28 -2 100 100 WSW 8 13 30.59 1036 0.5 0.80467 0 0
8:56 am 08:56 Cloudy with Mist and Fog 28 -2.2 28 -2.2 100 100 WSW 7 11 30.59 1036 0.75 1.207005 0 0
9:04 am 09:04 Cloudy with Freezing Fog 28 -2 28 -2 100 100 WSW 6 9 30.62 1037 0.5 0.80467 0 0
9:17 am 09:17 Cloudy with Mist and Fog 28 -2 28 -2 100 100 W 7 11 30.62 1037 0.75 1.207005 0 0
9:25 am 09:25 Cloudy with Freezing Fog 28 -2 28 -2 100 100 WNW 6 9 30.62 1037 0.5 0.80467 0 0
9:41 am 09:41 Cloudy with Freezing Fog 28 -2 28 -2 100 100 W 6 9 30.65 1038 0.25 0.402335 0 0
9:56 am 09:56 Cloudy with Freezing Fog 28 -2.2 28 -2.2 100 100 SW 6 9 30.62 1037 0.25 0.402335 0 0
10:45 am 10:45 Cloudy with Freezing Fog 28 -2 28 -2 100 100 WSW 8 13 30.65 1038 0.5 0.80467 0 0
10:56 am 10:56 Cloudy with Freezing Fog 28 -2.2 28 -2.2 100 100 W 5 7 30.63 1037 0.25 0.402335 0 0
11:08 am 11:08 Cloudy with Freezing Fog 28 -2 28 -2 100 100 W 8 13 30.65 1038 0.5 0.80467 0 0
11:44 am 11:44 Cloudy with Mist and Fog 28 -2 28 -2 100 100 WSW 7 11 30.65 1038 0.75 1.207005 0 0
11:56 am 11:56 Cloudy with Mist and Fog 29 -1.6 29 -1.6 100 100 W 7 11 30.63 1037 0.75 1.207005 0 0
12:06 pm 12:06 Cloudy with Mist and Fog 28 -2 28 -2 100 100 WSW 8 13 30.65 1038 1 1.60934 0 0
12:17 pm 12:17 Cloudy with Mist and Fog 30 -1 30 -1 100 100 WSW 7 11 30.65 1038 1.25 2.011675 0 0
12:24 pm 12:24 Cloudy with Mist and Fog 30 -1 30 -1 100 100 WNW 6 9 30.65 1038 1.5 2.41401 0 0
12:56 pm 12:56 Cloudy with Mist and Fog 30 -1.1 30 -1.1 100 100 WSW 8 13 30.63 1037 3 4.82802 0 0
1:04 pm 13:04 Cloudy with Mist and Fog 30 -1 30 -1 100 100 WSW 5 7 30.65 1038 2.5 4.02335 0 0
1:18 pm 13:18 Cloudy with Mist and Fog 30 -1 30 -1 100 100 W 7 11 30.65 1038 3 4.82802 0 0
1:56 pm 13:56 Cloudy with Mist and Fog 31 -0.5 31 -0.5 100 100 W 5 7 30.62 1037 4 6.43736 0 0
2:18 pm 14:18 Cloudy with Mist and Fog 30 -1 30 -1 100 100 NW 5 7 30.65 1038 5 8.0467 0 0
2:56 pm 14:56 Cloudy with Mist and Fog 32 0 30 -1.1 92 92 Calm 30.63 1037 6 9.65604 0 0
3:56 pm 15:56 Cloudy 34 1.1 31 -0.5 89 89 Calm 30.64 1038 7 11.26538 0 0
4:26 pm 16:26 Partly Cloudy 34 1 30 -1 87 87 NW 3 6 30.65 1038 9 14.48406 0 0
4:56 pm 16:56 Sunny 32 0 30 -1.1 92 92 W 6 9 30.64 1038 9 14.48406 0 0
5:56 pm 17:56 Clear 31 -0.5 29 -1.6 92 92 W 3 6 30.64 1038 9 14.48406 0 0
6:56 pm 18:56 Clear 30 -1.1 29 -1.6 96 96 W 3 6 30.65 1038 7 11.26538 0 0
7:56 pm 19:56 Clear with Mist and Fog 28 -2.2 28 -2.2 100 100 W 3 6 30.66 1038 4 6.43736 0 0
8:13 pm 20:13 Clear with Mist and Fog 27 -3 27 -3 100 100 WSW 3 6 30.68 1039 2.5 4.02335 0 0
8:32 pm 20:32 Clear with Mist and Fog 27 -3 27 -3 100 100 Calm 30.68 1039 3 4.82802 0 0
8:56 pm 20:56 Clear with Mist and Fog 26 -3.3 26 -3.3 100 100 Calm 30.67 1039 2.5 4.02335 0 0
9:15 pm 21:15 Clear with Mist and Fog 27 -3 27 -3 100 100 Calm 30.68 1039 1.5 2.41401 0 0
9:33 pm 21:33 Clear with Mist and Fog 27 -3 27 -3 100 100 Calm 30.71 1040 2 3.21868 0 0
9:56 pm 21:56 Clear with Mist and Fog 25 -3.8 25 -3.8 100 100 Calm 30.68 1039 2.5 4.02335 0 0
10:36 pm 22:36 Clear with Mist and Fog 25 -4 25 -4 100 100 Calm 30.71 1040 1.5 2.41401 0 0
10:42 pm 22:42 Clear with Mist and Fog 25 -4 25 -4 100 100 Calm 30.71 1040 1 1.60934 0 0
10:56 pm 22:56 Clear with Mist and Fog 24 -4.4 23 -5 96 96 Calm 30.68 1039 1.5 2.41401 0 0
11:06 pm 23:06 Clear with Mist and Fog 25 -4 25 -4 100 100 SSW 3 6 30.71 1040 1 1.60934 0 0
11:14 pm 23:14 Clear with Mist and Fog 25 -4 25 -4 100 100 SSW 3 6 30.71 1040 0.75 1.207005 0 0
11:22 pm 23:22 Clear with Mist and Fog 25 -4 23 -5 93 93 Calm 30.71 1040 1.25 2.011675 0 0
11:26 pm 23:26 Clear with Mist and Fog 25 -4 23 -5 93 93 Calm 30.71 1040 2 3.21868 0 0
11:34 pm 23:34 Mostly Cloudy with Mist and Fog 25 -4 23 -5 93 93 WSW 5 7 30.71 1040 1.75 2.816345 0 0
11:39 pm 23:39 Mostly Cloudy with Mist and Fog 25 -4 25 -4 100 100 SW 5 7 30.71 1040 1 1.60934 0 0
11:41 pm 23:41 Mostly Cloudy with Freezing Fog 25 -4 25 -4 100 100 WSW 5 7 30.71 1040 0.5 0.80467 0 0
11:48 pm 23:48 Mostly Cloudy with Freezing Fog 25 -4 25 -4 100 100 WSW 3 6 30.71 1040 5 8.0467 0 0
11:56 pm 23:56 Cloudy with Freezing Fog 26 -3.3 26 -3.3 100 100 W 3 6 30.68 1039 5 8.0467 0 0

Powered by AerisWeather